Regional Weather Roundup
Issued by NWS Glasgow, MT

Home | Current Version | Previous Version | Text Only | Print | Product List | Glossary On
Versions: 1 2 3 4 5 6 7 8 9 10 11 12 13 14 15 16 17 18 19 20 21 22 23 24 25 26 27 28 29 30 31 32 33 34 35 36 37 38 39 40 41 42 43 44 45 46 47 48 49 50
000
ASUS45 KGGW 231915
RWRGGW
HOURLY REGIONAL WEATHER ROUNDUP FOR NORTHEAST MONTANA
NATIONAL WEATHER SERVICE GLASGOW MONTANA
100 PM MDT THU MAR 23 2017

NOTE: "FAIR" INDICATES FEW OR NO CLOUDS BELOW 12,000 FEET WITH NO
SIGNIFICANT WEATHER AND/OR OBSTRUCTIONS TO VISISBILITY.

NORTHEAST MONTANA


CITY           SKY/WX    TMP DP  RH WIND       PRES   REMARKS
GLASGOW        SUNNY     57  32  38 NW12      29.78S
PLENTYWOOD       N/A     52  36  54 SW2         N/A
WOLF POINT     SUNNY     58  36  43 SW5       29.76F
JORDAN           N/A     60  31  33 NW12      29.78F
WINNETT          N/A     56  29  35 NW14G23     N/A
SIDNEY         CLOUDY    54  40  59 NE6       29.75F
GLENDIVE       CLOUDY    59  38  45 CALM      29.76F
MALTA            N/A     59  32  36 W10G20      N/A
SCOBEY           N/A     55  30  38 S8        29.76

FORT PECK REPORTS


CITY           SKY/WX    TMP DP  RH WIND       PRES   REMARKS
FORT PECK        N/A     57  32  38 W12         N/A
THE PINES        N/A     60  32  34 E2          N/A

SOUTHEAST MONTANA


CITY           SKY/WX    TMP DP  RH WIND       PRES   REMARKS
BILLINGS       CLOUDY    50  37  61 E5        29.83S
MILES CITY     CLOUDY    52  43  71 S3        29.77F
BAKER          CLOUDY    48  39  71 CALM      29.78S
LIVINGSTON     MOSUNNY   52  30  43 SW15      29.85F

CENTRAL MONTANA


CITY           SKY/WX    TMP DP  RH WIND       PRES   REMARKS
HAVRE          SUNNY     55  28  35 W14       29.82S
LEWISTOWN      MOSUNNY   53  28  38 NW8       29.83F
GREAT FALLS    MOSUNNY   54  17  23 W20G26    29.85F
CUT BANK       SUNNY     50  24  36 W26G37    29.83S
HELENA         MOSUNNY   50  23  34 W17G26    29.89F
BUTTE          MOSUNNY   44  20  38 NW8G18    29.91F
BOZEMAN        MOSUNNY   49  29  46 VRB3      29.89F

WESTERN MONTANA


CITY           SKY/WX    TMP DP  RH WIND       PRES   REMARKS
MISSOULA       CLOUDY    48  26  42 NW15G21   30.00F
KALISPELL      NOT AVBL

NORTH DAKOTA


CITY           SKY/WX    TMP DP  RH WIND       PRES   REMARKS
WILLISTON      CLOUDY    53  37  54 NE6       29.76S
DICKINSON      CLOUDY    53  32  44 NE8       29.71R
MINOT          CLOUDY    47  37  68 N7        29.74R
BISMARCK       CLOUDY    42  38  85 CALM      29.74S

SOUTHERN SASKATCHEWAN


CITY           SKY/WX    TMP DP  RH WIND       PRES   REMARKS
REGINA         MOSUNNY   41  28  60 N5        29.80R
MOOSE JAW      MOSUNNY   41  32  70 W3        29.81F
ESTEVAN        PTSUNNY   36  32  87 NW14      29.77S
SWIFT CURRENT  SUNNY     50  32  50 W10G17    29.75S




USA.gov is the U.S. government's official web portal to all federal, state and local government web resources and services.